Regional Weather Roundup
Issued by NWS

Home | Current Version | Previous Version | Graphics & Text | Print | Product List | Glossary On
Versions: 1 2 3 4 5 6 7 8 9 10 11 12 13 14 15 16 17 18 19 20 21 22 23 24 25 26 27 28 29 30 31 32 33 34 35 36 37 38 39 40 41 42 43 44 45 46 47 48 49 50
427
ASUS44 KLIX 210305
RWRLA
LOUISIANA WEATHER ROUNDUP
NATIONAL WEATHER SERVICE NEW ORLEANS LA
1000 PM CDT WED AUG 20 2014

NOTE: "FAIR" INDICATES FEW OR NO CLOUDS BELOW 12,000 FEET WITH NO
      SIGNIFICANT WEATHER AND/OR OBSTRUCTIONS TO VISIBILITY.
      SKY/WX - SKY CONDITION AND SIGNIFICANT WEATHER.
      TMP - AIR TEMPERATURE.    DP   - DEWPOINT TEMPERATURE.
      RH  - RELATIVE HUMIDITY.  PRES - PRESSURE.
      HX  - HEAT INDEX.         WCI  - WIND CHILL INDEX.

*  THESE STATIONS ARE NOT NWS OR FAA STATIONS AND ARE NOT UNDER
   NWS QUALITY CONTROL.

LAZ040-048-061>063-065-066-069-210400-
SOUTHEAST LOUISIANA

CITY           SKY/WX    TMP DP  RH WIND       PRES   REMARKS
N.O. AUDUBON     N/A     78  75  91 MISG        N/A
N.O. INTL ARPT PTCLDY    79  72  79 NW3       30.08R
N.O. LAKEFRONT PTCLDY    84  72  67 SW3       30.09R
N.O. DOWNTOWN* FAIR      82  70  65 CALM      30.09S
SLIDELL        CLEAR     79  75  87 NE3       30.08R
BATON ROUGE    MOCLDY    77  73  87 E5        30.06F
BOOTHVILLE     CLEAR     85  76  74 S5        30.10R
BELLE CHASSE   MOCLDY    77  73  87 CALM      30.08S
BOGALUSA*      FAIR      81  74  80 CALM      30.11R
GALLIANO*      NOT AVBL
NEW ROADS*     FAIR      77  74  92 CALM      30.06F
GONZALES*      FAIR      75  75 100 CALM      30.07R
HAMMOND*       CLEAR     75  70  83 CALM      30.10R
HOUMA*         CLOUDY    76  72  89 CALM      30.08R
PORT FOURCHON* CLEAR     86  75  70 S6        30.10R HX  95

$$

LAZ041-044-053-054-210400-
SOUTHWEST LOUISIANA

CITY           SKY/WX    TMP DP  RH WIND       PRES   REMARKS
LAKE CHARLES   CLOUDY    79  74  84 S8        30.02S
LAFAYETTE      CLOUDY    78  75  90 CALM      30.05S
PATTERSON      CLOUDY   N/A N/A N/A MISG        N/A
SALT POINT       N/A     80  75  84 CALM      30.06R
NEW IBERIA     CLOUDY    80  75  84 SE9       30.05F
CHENAULT AIRPK CLOUDY    77  73  85 SE3       30.04R

$$

LAZ027-028-210400-
CENTRAL LOUISIANA

CITY           SKY/WX    TMP DP  RH WIND       PRES   REMARKS
FORT POLK      CLOUDY    75  74  96 S3        30.04R
ALEXANDRIA INT CLOUDY    77  72  84 S3        30.01S
ALEXANDRIA     CLOUDY    77  71  82 E6        30.03S

$$

LAZ001-002-210400-
NORTHWEST LOUISIANA

CITY           SKY/WX    TMP DP  RH WIND       PRES   REMARKS
SHREVEPORT     PTCLDY    79  69  71 S9        30.00R
BARKSDALE AFB  PTCLDY    76  68  75 S8        30.00R
DTN SHREVEPORT PTCLDY    78  68  71 S6        30.00R

$$

LAZ014-016-210400-
NORTHEAST LOUISIANA

CITY           SKY/WX    TMP DP  RH WIND       PRES   REMARKS
MONROE         PTCLDY    80  71  74 S3        30.04R
TALLULAH       CLEAR     80  73  79 SW5       30.06R

$$




USA.gov is the U.S. government's official web portal to all federal, state and local government web resources and services.